User: anonymous   Login
Location: Sankt Anna
(58.3452°N, 16.7040°E)
Time: 18:39:56
(UTC+01:00)
Language:

AO-92 - Orbit

View from above orbital plane
View from above orbital plane
View from above satellite
View from above satellite

Ground track
Ground track

The orbit data is extracted from the following two-line orbital elements,

1 43137U 18004AC  19321.86946292 +.00000950 +00000-0 +42493-4 0  9993
2 43137 097.4721 029.2156 0010894 084.3130 275.9348 15.23716873102673
Epoch (UTC): 17 November 2019 20:52:01
Eccentricity: 0.0010894
inclination: 97.4721°
perigee height: 487 km
apogee height: 502 km
right ascension of ascending node: 29.2156°
argument of perigee: 84.3130°
revolutions per day: 15.23716873
mean anomaly at epoch: 275.9348°
orbit number at epoch: 10267

The dashed part of the orbit path shows where the satellite is in the earth's shadow,  

DLR